Regional Weather Roundup
Issued by NWS

Home | Current Version | Previous Version | Graphics & Text | Print | Product List | Glossary On
Versions: 1 2 3 4 5 6 7 8 9 10 11 12 13 14 15 16 17 18 19 20 21 22 23 24 25 26 27 28 29 30 31 32 33 34 35 36 37 38 39 40 41 42 43 44 45 46 47 48 49 50
000
ASUS43 KMKX 221821
RWRWI

WISCONSIN REGIONAL WEATHER ROUNDUP
NATIONAL WEATHER SERVICE MILWAUKEE/SULLIVAN WI
100 PM CDT WED MAR 22 2017

NOTE: "FAIR" INDICATES FEW OR NO CLOUDS BELOW 12,000 FEET WITH NO
SIGNIFICANT WEATHER AND/OR OBSTRUCTIONS TO VISIBILITY.

WIZ001-002-006>008-014>016-023>028-221900-
NORTHWEST WISCONSIN

CITY           SKY/WX    TMP DP  RH WIND       PRES   REMARKS
SUPERIOR ARPT  CLOUDY    30  12  47 NE9       30.54F WCI  22
6HR MIN TEMP:  12; 6HR MAX TEMP:  32;

ASHLAND        CLOUDY    32  13  45 VRB6      30.56F WCI  26
6HR MIN TEMP:  10; 6HR MAX TEMP:  32;

HAYWARD        SUNNY     33   4  29 MISG      30.52F
6HR MIN TEMP:   8; 6HR MAX TEMP:  33;

SIREN          SUNNY     34   5  29 CALM      30.52F
6HR MIN TEMP:   7; 6HR MAX TEMP:  34;

CUMBERLAND     SUNNY     32   9  37 S8        30.51F WCI  25
RICE LAKE      SUNNY     32   8  37 CALM      30.53F
6HR MIN TEMP:  15; 6HR MAX TEMP:  32;

CHETEK         SUNNY     32   9  38 S10       30.54F WCI  24
6HR MIN TEMP:  12; 6HR MAX TEMP:  32;

LADYSMITH      SUNNY     32   9  37 S5        30.54F WCI  28
6HR MIN TEMP:  16; 6HR MAX TEMP:  32;

EAU CLAIRE     SUNNY     33   5  30 SE10      30.54F WCI  25
6HR MIN TEMP:  14; 6HR MAX TEMP:  33;

MENOMONIE      SUNNY     34   5  28 SE8       30.54F WCI  28
6HR MIN TEMP:  17; 6HR MAX TEMP:  35;

NEW RICHMOND   SUNNY     34   7  32 SE9       30.52F WCI  27
6HR MIN TEMP:  17; 6HR MAX TEMP:  34;

OSCEOLA        SUNNY     35   7  31 SE9G16    30.54F WCI  27
6HR MIN TEMP:  17; 6HR MAX TEMP:  35;

$$

WIZ003>005-009-010-017-018-221900-
NORTH CENTRAL WISCONSIN

CITY           SKY/WX    TMP DP  RH WIND       PRES   REMARKS
MANITOWISH WTR SUNNY     27   6  39 S6        30.52S WCI  21
6HR MIN TEMP:   1; 6HR MAX TEMP:  28;

ARBOR VITAE    SUNNY     29   6  37 SE3       30.51F
6HR MIN TEMP:   6; 6HR MAX TEMP:  29;

WOODRUFF       SUNNY     29   6  37 SE3       30.51F
6HR MIN TEMP:   6; 6HR MAX TEMP:  29;

RHINELANDER    SUNNY     29   4  34 CALM      30.52F
6HR MIN TEMP:   7; 6HR MAX TEMP:  30; 6HR PCP: TRACE;

EAGLE RIVER    SUNNY     29   1  29 SE7       30.50F WCI  22
6HR MIN TEMP:   2; 6HR MAX TEMP:  29;

LAND O LAKES   SUNNY     29   1  29 E5        30.52F WCI  24
6HR MIN TEMP:   0; 6HR MAX TEMP:  29;

PHILLIPS       SUNNY     30   7  37 E6        30.51F WCI  24
6HR MIN TEMP:   7; 6HR MAX TEMP:  29;

TOMAHAWK       SUNNY     30   5  34 S3        30.52F
6HR MIN TEMP:   4; 6HR MAX TEMP:  30;

MEDFORD        SUNNY     28  11  48 SE6       30.52F WCI  22
6HR MIN TEMP:  12; 6HR MAX TEMP:  28;

MERRILL        SUNNY     30   8  38 E5        30.54F WCI  26
6HR MIN TEMP:   8; 6HR MAX TEMP:  30;

$$

WIZ029-030-035-036-043>047-221900-
CENTRAL WISCONSIN

CITY           SKY/WX    TMP DP  RH WIND       PRES   REMARKS
WAUSAU         SUNNY     29   7  39 S8        30.55F WCI  21
6HR MIN TEMP:  15; 6HR MAX TEMP:  29;

MOSINEE        SUNNY     30   7  37 VRB6      30.56F WCI  24
MARSHFIELD     SUNNY     30   9  41 SE10      30.53F WCI  21
6HR MIN TEMP:  15; 6HR MAX TEMP:  30;

STEVENS POINT  SUNNY     28   6  38 S9        30.58F WCI  20
6HR MIN TEMP:   9; 6HR MAX TEMP:  28;

WAUPACA        SUNNY     34   9  35 SE6       30.60F WCI  29
6HR MIN TEMP:  19; 6HR MAX TEMP:  34;

WAUTOMA        SUNNY     32  11  41 E8        30.59F WCI  25
6HR MIN TEMP:  12; 6HR MAX TEMP:  32;

WISC RAPIDS    SUNNY     32   5  32 SE7       30.58F WCI  26
6HR MIN TEMP:  13; 6HR MAX TEMP:  32;

CAMP DOUGLAS   MOSUNNY   34   5  29 SE9       30.56F WCI  26
$$

WIZ011>013-019>022-031-037>040-048>050-221900-
NORTHEAST WISCONSIN

CITY           SKY/WX    TMP DP  RH WIND       PRES   REMARKS
ANTIGO         SUNNY     28   7  40 SE7       30.54F WCI  21
6HR MIN TEMP:  14; 6HR MAX TEMP:  28;

SHAWANO        SUNNY     32  11  42 N6        30.60F WCI  26
6HR MIN TEMP:  19; 6HR MAX TEMP:  31;

OCONTO         SUNNY     28  10  48 N5        30.62F WCI  23
6HR MIN TEMP:  17; 6HR MAX TEMP:  28;

STURGEON BAY   SUNNY     27  13  55 NW3       30.62F
6HR MIN TEMP:  18; 6HR MAX TEMP:  28; 6HR PCP: TRACE;

GREEN BAY      SUNNY     31  15  52 CALM      30.61F
6HR MIN TEMP:  18; 6HR MAX TEMP:  31;

MANITOWOC      CLOUDY    28  17  63 CALM      30.63S
6HR MIN TEMP:  21; 6HR MAX TEMP:  28; 6HR PCP: TRACE;

APPLETON       MOSUNNY   30   7  37 VRB3      30.58F
CLINTONVILLE   SUNNY     32   9  37 SW3       30.60F
OSHKOSH        SUNNY     29  14  53 E7        30.59F WCI  22
6HR MIN TEMP:  21; 6HR MAX TEMP:  29;

$$

WIZ032>034-041-042-053>061-221900-
SOUTHWEST WISCONSIN

CITY           SKY/WX    TMP DP  RH WIND       PRES   REMARKS
LA CROSSE      SUNNY     37   6  27 S8        30.57F WCI  31
6HR MIN TEMP:  22; 6HR MAX TEMP:  37;

SPARTA         SUNNY     35   8  32 E12       30.57F WCI  27
6HR MIN TEMP:  10; 6HR MAX TEMP:  35;

VIROQUA        SUNNY     34   6  30 CALM      30.52F
6HR MIN TEMP:  17; 6HR MAX TEMP:  33;

BOSCOBEL       SUNNY     37   5  26 E7G18     30.57F WCI  32
6HR MIN TEMP:  22; 6HR MAX TEMP:  39;

PRAIRIE DU CHI SUNNY     36   6  28 E8        30.56F WCI  29
6HR MIN TEMP:  23; 6HR MAX TEMP:  36;

PLATTEVILLE    SUNNY     34  10  37 E6        30.55F WCI  29
6HR MIN TEMP:  21; 6HR MAX TEMP:  35;

$$

WIZ056-057-062-063-064-067-068-221900-
SOUTH CENTRAL WISCONSIN

CITY           SKY/WX    TMP DP  RH WIND       PRES   REMARKS
REEDSBURG      SUNNY     33   9  36 E7        30.56F WCI  27
6HR MIN TEMP:  18; 6HR MAX TEMP:  33;

BARABOO/DELLS  SUNNY     32   7  34 CALM      30.56F
6HR MIN TEMP:  16; 6HR MAX TEMP:  32;

LONE ROCK      SUNNY     34   7  32 VRB6      30.57F WCI  29
6HR MIN TEMP:  19; 6HR MAX TEMP:  35;

MINERAL POINT  SUNNY     36   5  27 E12       30.53F WCI  27
MADISON        MOSUNNY   33  12  41 E9        30.57F WCI  25
6HR MIN TEMP:  18; 6HR MAX TEMP:  33;

MIDDLETON      SUNNY     34  14  43 SE9       30.57F WCI  26
6HR MIN TEMP:  22; 6HR MAX TEMP:  34;

WATERTOWN      SUNNY     33  15  49 E8        30.57F WCI  25
6HR MIN TEMP:  19; 6HR MAX TEMP:  33;

MONROE         SUNNY     34  12  40 E6        30.55F WCI  29
JANESVILLE     MOSUNNY   36  14  41 E12       30.56F WCI  27
$$

WIZ051-052-058>065-066-070>072-221900-
SOUTHEAST WISCONSIN

CITY           SKY/WX    TMP DP  RH WIND       PRES   REMARKS
MILWAUKEE      CLOUDY    33  16  49 NE8       30.60S WCI  26
6HR MIN TEMP:  24; 6HR MAX TEMP:  33;

WAUKESHA       MOSUNNY   30  16  55 E10       30.59F WCI  21
MILWAUKEE/TIMM MOSUNNY   30  12  47 E6        30.61F WCI  24
RACINE         CLOUDY    32  17  54 NE9       30.61F WCI  24
6HR MIN TEMP:  26; 6HR MAX TEMP:  34;

KENOSHA        MOSUNNY   33  18  53 E12       30.58F WCI  24
6HR MIN TEMP:  25; 6HR MAX TEMP:  33;

FOND DU LAC    SUNNY     31  13  47 VRB6      30.59F WCI  25
6HR MIN TEMP:  21; 6HR MAX TEMP:  32;

SHEBOYGAN      CLOUDY    28  17  63 E7        30.61F WCI  21
6HR MIN TEMP:  21; 6HR MAX TEMP:  28;

WEST BEND      MOSUNNY   32  14  47 NE6       30.59S WCI  26
JUNEAU         SUNNY     31  14  48 SE3       30.59F
6HR MIN TEMP:  19; 6HR MAX TEMP:  32;

$$

LSZ147-162-221900-
LAKE SUPERIOR

STATION/POSITION TIME  TEMP    WIND        PRES    WAVE
                       AIR SEA DIR/SP/G            HT/PER
                 (UTC) (F)     (DEG/KT/KT) (MB)    (FT/S)
DEVILS ISLAND    1800   27     150/  3/  6 1036.7F
PORT WING        1740   27      10/  7/ 10 1035.2F
SAXON HARBOR     1740   27      40/  9/ 10 1034.9F
$$

LMZ867-665-643>646-221900-
LAKE MICHIGAN

STATION/POSITION TIME  TEMP    WIND        PRES    WAVE
                       AIR SEA DIR/SP/G            HT/PER
                 (UTC) (F)     (DEG/KT/KT) (MB)    (FT/S)
CHAMBERS ISLAND  1740   27     350/  5/  6 1036.6F
NORTHPORT PIER   1740   24     120/  1/  2 1037.3R
SISTER BAY



USA.gov is the U.S. government's official web portal to all federal, state and local government web resources and services.